Probability
14 12 9 6 4 2 2 2 2 2 2 1 1 1 1 0 0 0 0 0 0 0 0 0 0 0 0 0 0 0 0 0 0 0 0 0 0 0 0 0 0 0 0
17 15 10 8 7 5 4 4 3 3 3 2 2 2 2 1 0 0 0 0 0 0 0 0 0 0 0 0 0 0 0 0 0 0 0 0 0 0 0 0 0 0 0
21 16 10 9 9 7 5 5 4 3 3 3 3 3 3 2 1 0 0 0 0 0 0 0 0 0 0 0 0 0 0 0 0 0 0 0 0 0 0 0 0 0 0
22 15 9 9 9 6 4 3 4 4 3 3 2 2 3 3 2 1 0 1 1 1 0 0 0 0 0 0 0 0 0 0 0 0 0 0 0 0 0 0 0 0 0
22 16 12 12 12 7 3 3 5 5 3 2 2 2 2 2 2 1 0 1 2 1 0 0 0 0 0 0 0 0 0 0 0 0 0 0 0 0 0 0 0 0 0
23 18 15 16 14 10 5 4 5 5 3 2 1 1 1 1 1 0 0 1 2 1 0 0 0 0 0 0 0 0 0 0 0 0 0 0 0 0 0 0 0 0 0
22 19 17 18 15 11 7 4 4 4 3 2 2 1 1 0 0 0 0 1 1 0 0 1 0 0 0 0 0 0 0 0 0 0 0 0 0 0 0 0 0 0 0
23 20 19 17 13 11 8 6 4 3 3 2 2 2 1 0 0 0 0 1 0 0 0 0 0 0 0 0 0 0 0 0 0 0 0 0 0 0 0 0 0 0 0
26 22 17 13 11 10 9 8 6 4 3 1 1 2 1 0 0 0 0 0 0 0 0 0 0 0 0 0 0 0 0 0 0 0 0 0 0 0 0 0 0 0 0
25 22 15 11 9 9 9 8 8 5 2 1 0 1 1 0 0 0 0 0 0 0 0 0 0 0 0 0 0 0 0 0 0 0 0 0 0 0 0 0 0 0 0
23 20 15 11 8 7 7 8 8 6 2 0 0 0 0 0 0 0 0 0 0 0 0 0 0 0 0 0 0 0 0 0 0 0 0 0 0 0 0 0 0 0 0
22 17 14 12 8 6 8 8 7 5 2 0 0 0 0 0 0 0 0 0 0 1 0 0 0 0 0 0 0 0 0 0 0 0 0 0 0 0 0 0 0 0 0
20 17 14 12 9 7 7 7 5 3 1 0 0 0 0 0 0 0 0 0 0 0 0 0 0 0 0 0 0 0 0 0 0 0 0 0 0 0 0 0 0 0 0
19 19 17 13 9 6 6 6 5 2 1 1 0 0 0 0 0 0 0 0 0 0 0 0 0 0 0 0 0 0 0 0 0 0 0 0 0 0 0 0 0 0 0
19 20 18 13 9 7 6 5 3 2 2 2 1 0 0 0 0 0 0 0 0 0 0 0 0 0 0 0 0 0 0 0 0 0 0 0 0 0 0 0 0 0 0
21 21 17 13 10 8 6 4 2 1 2 2 1 0 0 0 0 0 0 0 0 0 1 1 2 1 1 0 0 0 0 0 0 0 0 0 0 0 0 0 0 0 0
22 19 14 11 9 6 4 3 2 2 1 1 1 0 0 0 0 0 0 0 0 0 1 2 3 3 2 1 1 1 1 0 0 0 0 0 0 0 0 0 0 0 0
19 14 11 9 6 3 3 3 3 2 1 0 0 0 0 0 0 0 0 0 0 0 1 2 3 3 3 3 4 4 2 0 0 0 0 0 0 0 0 0 0 0 0
13 10 7 6 3 1 2 3 3 2 1 0 0 0 0 0 0 0 0 0 0 0 1 1 1 2 3 5 7 6 3 2 2 0 0 0 0 0 0 0 0 0 0
9 7 6 5 4 2 3 4 4 2 1 1 1 1 0 0 0 0 0 0 0 0 1 1 0 1 3 6 8 6 4 4 4 2 1 1 1 0 0 0 0 0 0
7 7 8 8 7 4 3 6 6 4 3 3 3 3 1 0 0 1 1 1 0 0 2 3 2 1 3 6 7 6 4 4 3 3 2 2 1 1 1 1 1 0 0
13 14 14 13 10 6 2 3 6 7 6 5 5 5 3 1 0 0 0 0 0 0 2 2 2 2 3 6 6 4 4 3 2 2 2 1 1 1 1 2 1 0 0
25 25 22 18 14 8 2 1 3 7 8 7 7 6 4 2 1 1 0 0 0 0 1 1 1 1 2 5 5 4 4 3 1 1 1 0 0 1 1 1 1 0 0
33 33 30 26 20 12 5 1 1 4 8 10 8 8 7 5 3 1 1 2 2 0 0 0 0 0 1 3 3 2 2 2 1 0 0 0 0 0 0 0 0 0 0
36 36 34 32 27 17 8 2 1 5 9 12 11 9 8 6 3 1 3 6 5 2 0 0 0 0 0 1 1 1 1 0 0 0 0 0 0 0 0 0 0 0 0
37 36 35 34 30 21 10 3 2 7 11 12 11 9 6 3 1 1 4 7 6 3 1 0 0 0 0 0 0 0 0 0 0 0 0 0 0 0 0 0 0 0 0
Wind_Speed
4 4 3 2 3 3 3 1 2 2 2 1 1 2 3 5 8 8 7 11 11 10 10 9 9 8 7 7 7 7 6 6 6 6 6 6 6 6 6 5 5 5 5
4 4 3 2 2 2 2 2 3 2 1 1 1 2 2 4 6 8 7 7 10 9 9 9 8 8 7 7 6 6 6 6 6 6 6 6 5 5 5 5 5 5 4
5 4 4 2 2 3 3 1 2 2 2 2 2 2 2 3 4 7 7 5 6 8 8 8 8 8 7 7 6 6 6 6 6 6 6 5 5 5 5 5 5 5 5
6 4 4 3 3 3 2 2 1 1 1 1 2 1 2 2 3 5 5 6 5 6 7 9 8 7 7 7 7 7 7 7 7 7 6 6 6 6 6 6 6 6 6
6 4 3 3 4 3 3 3 2 1 1 1 2 2 2 2 2 3 4 6 5 6 5 7 8 8 8 7 7 7 7 7 7 7 7 7 7 7 7 7 7 6 6
5 4 4 4 3 3 2 2 3 2 1 1 1 2 1 2 2 2 3 4 4 6 6 7 6 6 8 7 6 6 6 7 7 7 7 7 7 7 7 7 7 7 7
6 4 4 4 2 3 3 4 3 3 2 1 1 1 2 3 3 2 2 3 3 4 5 6 5 4 4 6 5 5 5 5 6 6 6 7 7 6 6 7 7 7 8
6 6 4 4 3 3 3 3 2 2 2 2 1 1 1 1 0 3 3 3 3 3 4 6 4 4 4 4 4 5 5 5 5 5 4 4 5 5 5 6 7 7 8
6 4 6 4 4 4 4 4 4 3 2 2 1 0 1 1 1 1 1 2 3 2 2 3 5 4 5 4 4 5 5 4 4 5 4 4 4 4 4 5 6 7 8
7 6 6 4 4 3 5 5 5 3 2 2 2 1 1 1 1 1 1 2 3 3 2 3 4 4 5 4 5 7 7 5 5 4 3 3 3 4 4 4 5 6 7
6 7 6 5 4 3 5 4 4 3 2 2 2 2 2 1 1 2 2 2 2 3 3 3 3 3 4 5 5 7 8 7 5 4 3 3 3 4 5 6 6 7 7
5 6 7 5 5 4 4 4 3 3 1 0 0 0 2 2 2 1 2 3 3 2 3 2 3 3 4 5 7 11 10 9 7 5 4 4 4 4 5 6 6 7 8
5 7 7 6 5 4 4 4 4 3 3 2 1 1 1 1 1 0 1 1 2 2 2 2 3 3 3 4 6 11 10 10 8 7 6 6 5 5 5 6 7 8 9
6 8 7 6 6 6 6 4 4 4 3 3 3 1 1 1 0 0 0 1 1 2 2 3 3 3 3 4 7 10 7 11 10 9 8 7 7 6 6 7 7 8 8
7 9 8 7 6 6 5 5 3 4 4 4 3 3 2 2 1 1 0 0 0 1 2 2 2 3 3 3 8 6 5 10 12 11 10 9 9 8 8 8 8 8 8
7 9 8 8 7 6 6 5 4 4 4 3 3 3 2 1 1 0 1 1 1 0 1 1 2 3 3 3 7 4 4 9 13 13 13 12 11 11 10 10 10 9 9
7 8 8 7 7 7 6 5 4 6 5 4 3 3 2 1 1 1 1 1 1 0 1 1 1 2 3 2 3 3 4 5 7 15 15 15 14 13 13 12 12 12 11
7 7 7 7 7 7 7 6 6 6 6 5 4 4 4 3 2 1 1 1 1 0 0 1 1 1 3 4 5 5 5 6 5 10 15 16 16 15 14 14 14 13 13
8 7 7 7 7 7 7 6 6 5 6 6 5 5 4 4 3 2 2 2 1 2 2 2 3 2 2 4 4 5 6 5 7 7 12 15 16 16 16 16 16 16 15
8 8 7 7 7 7 7 7 6 5 5 5 5 5 5 5 5 4 3 3 2 2 2 2 3 3 3 3 3 3 4 4 5 6 5 6 12 17 18 17 17 17 16
9 8 7 7 7 7 8 8 7 7 6 5 5 5 5 5 5 4 3 2 3 3 3 3 3 3 3 2 2 2 3 3 3 3 3 4 4 5 7 12 16 17 17
8 8 8 8 8 9 10 11 8 6 6 6 5 5 5 6 6 6 5 3 2 3 3 2 3 3 3 2 2 2 3 3 4 2 2 4 4 4 5 5 10 14 15
8 8 8 8 8 7 9 12 11 5 5 5 6 5 7 8 9 7 8 9 7 8 7 4 5 5 4 3 3 4 4 4 5 4 4 6 5 6 6 7 9 10 13
8 8 8 8 7 8 11 12 11 7 5 5 6 6 6 5 5 6 7 7 7 7 9 8 7 7 6 3 3 4 5 6 6 5 5 6 6 6 7 5 8 10 12
8 8 8 8 7 8 11 12 11 6 5 6 6 6 6 6 6 6 5 5 5 5 7 8 8 7 6 6 4 2 4 4 6 5 4 4 5 5 5 5 7 10 11
7 8 7 7 8 7 11 13 13 6 6 6 5 5 7 6 5 6 5 4 5 4 4 4 4 6 7 8 9 6 5 5 5 5 4 3 4 4 5 4 4 5 6
Wind_Direction
138 128 127 148 151 140 144 138 109 102 90 95 100 87 74 90 114 122 131 142 142 143 145 147 150 151 152 152 154 157 158 156 153 153 151 149 151 153 157 157 155 153 150
125 127 131 132 118 122 120 128 126 111 106 94 87 96 85 90 114 124 134 146 150 152 156 159 161 164 164 164 168 173 172 168 163 162 163 164 165 166 171 175 172 166 165
133 141 137 146 119 113 121 128 123 133 172 148 124 104 97 96 115 128 141 148 157 164 165 168 171 174 174 176 181 183 183 179 176 177 178 179 181 182 186 190 189 183 182
147 154 147 150 138 136 142 143 163 154 116 123 129 127 124 121 133 137 145 151 154 164 174 178 179 183 185 188 192 193 192 191 191 193 193 196 197 197 198 202 201 196 195
153 157 146 135 155 154 157 178 140 135 142 132 170 158 145 141 130 148 143 148 155 160 162 176 182 187 193 193 194 194 196 198 199 202 204 206 208 208 208 210 210 206 205
159 165 145 149 176 153 141 113 119 116 147 212 224 138 150 154 153 147 160 151 156 165 164 162 173 188 192 187 188 190 193 194 197 203 208 211 211 210 214 217 216 215 215
161 169 151 153 175 146 153 160 152 167 201 178 179 149 188 177 156 157 166 153 159 162 148 156 173 167 174 178 177 178 186 192 196 204 212 214 214 212 214 217 218 218 219
163 174 154 162 163 150 162 166 159 185 198 178 198 172 165 149 224 171 167 167 159 163 165 168 161 161 163 155 167 170 175 181 186 191 195 198 205 208 215 222 225 227 227
170 173 155 172 164 167 167 178 179 193 203 190 195 194 147 169 174 155 176 141 143 158 172 154 160 154 155 151 150 166 172 175 177 182 185 188 195 203 215 228 234 235 235
172 166 163 174 177 174 160 190 182 182 195 212 180 170 158 122 139 143 194 158 168 170 182 180 156 159 157 144 149 160 170 176 179 184 193 201 211 216 227 239 249 249 246
175 170 167 170 179 175 171 178 149 186 201 216 193 184 172 163 224 171 179 179 184 171 176 178 160 162 157 151 158 163 166 169 173 179 187 205 225 236 240 248 256 259 258
178 174 170 165 176 180 162 154 161 184 210 209 319 195 167 181 214 202 175 186 183 176 171 165 163 166 171 165 169 162 170 174 179 186 199 218 239 252 254 253 260 264 266
175 177 172 166 179 169 159 162 178 191 183 177 233 275 277 230 183 212 151 188 160 165 168 184 177 170 178 140 148 167 179 183 191 200 209 222 235 247 254 260 264 267 268
174 166 164 170 176 169 174 167 181 190 174 180 218 220 313 303 348 234 208 177 183 193 187 187 167 170 162 146 164 179 184 191 198 206 212 220 230 240 249 257 264 269 271
164 161 166 173 176 173 170 165 196 189 159 182 213 197 235 259 244 276 323 281 228 230 215 184 168 169 159 147 164 189 183 196 204 211 216 222 230 236 243 250 255 260 263
157 161 168 173 173 172 171 175 191 173 168 189 205 191 205 252 251 242 256 281 316 309 275 177 180 151 147 164 171 203 212 202 210 216 219 223 229 234 239 243 247 251 254
159 166 170 172 171 173 174 183 194 171 180 191 202 176 183 268 290 286 231 218 257 303 286 281 156 135 142 163 173 228 233 212 217 221 221 224 228 232 236 240 244 247 250
166 168 170 169 174 176 177 185 202 180 180 191 200 184 186 206 198 280 302 258 221 143 234 289 273 186 194 195 201 220 242 247 242 225 218 222 227 231 235 239 243 246 248
169 170 171 174 182 177 177 188 200 189 185 190 190 189 193 202 198 210 237 266 258 237 196 237 259 239 217 212 208 226 244 252 261 252 225 223 228 232 235 238 240 243 246
173 175 175 180 185 182 181 187 192 196 193 194 193 193 199 201 197 208 225 231 256 273 255 245 258 253 238 222 201 224 254 249 254 267 263 238 228 231 236 239 242 244 245
181 177 177 183 188 192 193 188 190 196 198 204 202 200 207 203 199 197 224 220 234 234 245 242 247 252 250 244 235 243 264 277 268 264 268 268 249 238 237 242 245 246 244
184 179 182 188 196 205 197 187 190 200 191 201 207 208 210 202 198 199 215 228 235 252 269 281 283 279 284 298 308 296 294 299 291 295 313 295 292 279 262 251 243 238 238
186 184 187 193 200 204 185 180 188 202 201 201 208 211 225 224 200 204 213 225 234 236 229 241 264 274 285 295 313 305 296 290 281 287 298 285 280 277 272 281 273 252 240
188 190 192 195 197 196 185 182 185 204 222 218 213 212 222 247 228 206 212 217 220 226 224 225 237 249 258 270 270 274 278 280 271 265 256 269 272 270 280 279 275 267 257
190 193 192 196 199 192 186 182 180 203 219 234 234 224 216 221 225 217 222 233 238 245 239 229 219 228 234 243 243 266 272 275 279 276 266 267 278 280 278 278 279 279 271
191 194 197 195 198 192 185 185 185 201 212 222 229 228 221 217 201 196 212 226 239 251 269 266 241 244 243 242 233 226 241 255 269 278 274 279 288 299 292 279 284 291 279